Regional Weather Roundup
Issued by NWS Jackson, KY

Home | Current Version | Previous Version | Graphics & Text | Print | Product List | Glossary On
Versions: 1 2 3 4 5 6 7 8 9 10 11 12 13 14 15 16 17 18 19 20 21 22 23 24 25 26 27 28 29 30 31 32 33 34 35 36 37 38 39 40 41 42 43 44 45 46 47 48 49 50
000
ASUS43 KJKL 020910
RWRJKL

EAST KENTUCKY HOURLY WEATHER ROUNDUP
NATIONAL WEATHER SERVICE JACKSON KY
500 AM EDT SAT AUG 02 2014

NOTE: "FAIR" INDICATES FEW OR NO CLOUDS BELOW 12,000 FEET WITH
NO SIGNIFICANT WEATHER AND/OR OBSTRUCTIONS TO VISIBILITY.

* THESE REPORTS ARE NOT UNDER NWS QUALITY CONTROL AND MAY NOT
  REPORT WEATHER SUCH AS PRECIPITATION AND FOG.

KYZ079-080-083-085-087-088-110-112-115-119-120-021000
...EASTERN KENTUCKY...

CITY           SKY/WX    TMP DP  RH WIND       PRES   REMARKS
JACKSON        PTCLDY    66  62  87 CALM      30.07S
LONDON         MOCLDY    67  63  87 CALM      30.08S
SOMERSET*      CLEAR     64  64 100 CALM      30.08S
MONTICELLO*    PTCLDY    63  63 100 CALM      30.08S FOG
WILLIAMSBURG*    N/A     66  66 100 CALM      30.08S
MIDDLESBORO*   MOCLDY    67  62  82 SW3       30.10S
HARLAN APT*    CLOUDY    64  63  94 MISG      30.11S
BLACK MTN*       N/A     59  57  94 S3          N/A
PIKEVILLE APT* PTCLDY    64  57  77 SE5       30.09S
BIG SANDY*     PTSUNNY   64  59  83 SE3       30.08S
MOREHEAD APT*  CLOUDY    66  64  94 CALM      30.09S
$$

KYZ035-036-041-042-044-050-067-078-099-021000
...CENTRAL KENTUCKY...

CITY           SKY/WX    TMP DP  RH WIND       PRES   REMARKS
MT STERLING*   CLOUDY    63  63 100 CALM      30.08S
FLEMING/MASON* CLOUDY    63  63 100 SE3       30.08S FOG
DANVILLE*      CLEAR     59  59 100 CALM      30.07F
RICHMOND*      CLEAR     64  61  88 CALM      30.06S
LEXINGTON      PTCLDY    63  60  90 N5        30.07R
FRANKFORT      PTCLDY    62  61  96 CALM      30.05S
$$

KYZ091>093-OHZ055-061-077-WVZ005-015-034-035-042-021000
...SOUTHERN OHIO/WEST VIRGINIA...

CITY           SKY/WX    TMP DP  RH WIND       PRES   REMARKS
COVINGTON      CLOUDY    68  60  75 N10       30.07R THUNDER
COLUMBUS       PTCLDY    69  62  78 SE3       30.07R
DAYTON         CLOUDY    65  59  81 N12       30.08S
WILMINGTON     MOCLDY    63  60  90 CALM      30.07S FOG
HUNTINGTON     MOCLDY    63  63 100 CALM      30.07R
CHARLESTON     PTCLDY    60  60 100 CALM      30.08S
PINEVILLE*     CLEAR     58  58 100 MISG      30.18S FOG
BECKLEY        CLEAR     61  55  81 SE10      30.16R
BLUEFIELD      CLOUDY    63  58  83 N5        30.18S
$$

VAZ002-007-008-TNZ017-027-036-066-071-021000
...SOUTHWEST VIRGINIA/EAST TENNESSEE...

CITY           SKY/WX    TMP DP  RH WIND       PRES   REMARKS
WISE*          PTCLDY    63  55  77 S5        30.16S
JONESVILLE*      N/A     63  63 100 CALM      30.13S
ABINGDON*      PTCLDY    63  60  89 E8        30.14S
BRISTOL        MOCLDY    60  57  89 CALM      30.11S
KNOXVILLE      LGT RAIN  68  65  90 NE5       30.08R
OAK RIDGE      CLOUDY    69  67  93 CALM      30.09R
CROSSVILLE     MOCLDY    67  63  87 CALM      30.11S FOG
NASHVILLE      MOCLDY    71  67  87 CALM      30.04S
$$

...KEY TO REMARKS...
VSB - VISIBILITY IN MILES
WCI - WIND CHILL INDEX
HX  - HEAT INDEX

$$



USA.gov is the U.S. government's official web portal to all federal, state and local government web resources and services.